Tracking 18840 objects as of 17-November-2017
HD Live streaming from Space Station
objects crossing your sky now

FENGYUN 1C DEB

Track FENGYUN 1C DEB now!
10-day predictions


NORAD ID: 35130
Int'l Code: 1999-025DLJ
Perigee: 813.1 km
Apogee: 885.3 km
Inclination: 99.1 °
Period: 101.8 minutes
Semi major axis: 7220 km
RCS: 0.009 m2 (small)
Launch date: May 10, 1999
Source: People's Republic of China (PRC)
Launch site: Taiyaun Space Center, China (TSC)

Note: This is SATELLITE DEBRIS
aabbcc
Your satellite tracking list
Your tracking list is empty




NASA's NSSDC Master Catalog

Two Line Element Set (TLE):
1 35130U 99025DLJ 17320.96491685  .00001556  00000-0  81664-3 0  9993
2 35130  99.0837   8.3269 0050039 332.1937  27.6562 14.15078493530731
Source of the keplerian elements: AFSPC